Regional Weather Roundup
Issued by NWS

Home | Current Version | Previous Version | Graphics & Text | Print | Product List | Glossary On
Versions: 1 2 3 4 5 6 7 8 9 10 11 12 13 14 15 16 17 18 19 20 21 22 23 24 25 26 27 28 29 30 31 32 33 34 35 36 37 38 39 40 41 42 43 44 45 46 47 48 49 50
000
ASUS43 KOAX 190402
RWRNE

WEATHER ROUNDUP FOR NEBRASKA
NATIONAL WEATHER SERVICE OMAHA NE
1000 PM CST SAT NOV 18 2017

NOTES: SATELLITE DATA IS BEING USED TO AUGMENT CLOUD COVER ABOVE
       12000 FEET.
       "FAIR" INDICATES FEW OR NO CLOUDS BELOW 12,000 FEET WITH NO
       SIGNIFICANT WEATHER AND/OR OBSTRUCTIONS TO VISIBILITY.


NEZ001>004-019>022-054>056-190500-
NEBRASKA PANHANDLE

CITY           SKY/WX    TMP DP  RH WIND       PRES   REMARKS
SCOTTSBLUFF    CLEAR     25  18  74 W3        30.22S
ALLIANCE       CLEAR     15  12  88 W8        30.20F WCI   4
CHADRON        CLOUDY    22  16  78 CALM      30.20S
GORDON         FAIR      26  17  71 CALM      30.18S
KIMBALL        CLEAR     23  15  71 SW7       30.22F WCI  15
SIDNEY         CLEAR     23  15  71 N5        30.24S WCI  17
$$

NEZ057>060-069>072-079>082-190500-
SOUTHWEST NEBRASKA

CITY           SKY/WX    TMP DP  RH WIND       PRES   REMARKS
NORTH PLATTE   CLEAR     27  21  78 NW6       30.23R WCI  20
IMPERIAL       CLEAR     30  15  53 W9        30.25S WCI  22
LEXINGTON      CLEAR     28  22  79 W6        30.22S WCI  22
MCCOOK         CLEAR     29  22  75 SW10      30.25S WCI  20
OGALLALA       CLEAR     27  19  72 W6        30.24S WCI  20
$$

NEZ005>010-023>029-035>040-094-190500-
NORTH CENTRAL NEBRASKA

CITY           SKY/WX    TMP DP  RH WIND       PRES   REMARKS
VALENTINE      CLOUDY    28  22  78 SW7       30.18R WCI  21
AINSWORTH      CLOUDY    28  24  85 SW6       30.18S WCI  22
BROKEN BOW     CLEAR     30  21  69 CALM      30.20R
O`NEILL        CLEAR     25  23  89 W6        30.18S WCI  18
ORD            CLEAR     28  22  78 CALM      30.19R
THEDFORD       CLEAR     28  21  76 W3        30.21S
$$

NEZ041-046>049-061>064-073>077-083>087-190500-
SOUTH CENTRAL NEBRASKA

CITY           SKY/WX    TMP DP  RH WIND       PRES   REMARKS
GRAND ISLAND   CLEAR     30  25  81 W8        30.22R WCI  22
AURORA         CLEAR     28  24  82 W5        30.22R WCI  23
HASTINGS       CLEAR     29  22  75 W3        30.23R
HEBRON         CLEAR     32  25  77 CALM      30.24S
HOLDREGE       CLEAR     31  22  70 W9        30.22F WCI  23
KEARNEY        CLEAR     32  24  72 W8        30.23S WCI  25
YORK           CLEAR     28  27  93 CALM      30.22R
$$

NEZ011>018-030>034-042>045-190500-
NORTHEAST NEBRASKA

CITY           SKY/WX    TMP DP  RH WIND       PRES   REMARKS
NORFOLK        CLEAR     24  20  84 W8        30.17R WCI  15
ALBION         CLEAR     25  22  89 CALM      30.20R
BLAIR          CLEAR     30  23  74 NW3       30.17S
COLUMBUS       CLEAR     28  23  81 W6        30.20S WCI  22
FREMONT        CLEAR     27  23  83 W6        30.20R WCI  21
TEKAMAH        CLEAR     31  21  66 NW13      30.19R WCI  21
WAYNE          CLEAR     26  22  82 NW3       30.18R
$$

NEZ050>053-065>068-078-088>093-190500-
SOUTHEAST NEBRASKA

CITY           SKY/WX    TMP DP  RH WIND       PRES   REMARKS
LINCOLN        CLEAR     34  25  69 NW5       30.22S WCI  30
OMAHA EPPLEY   CLEAR     33  21  61 NW9       30.19R WCI  25
BEATRICE       CLEAR     27  23  85 NW7       30.21S WCI  20
FALLS CITY     CLEAR     32  26  78 NW7       30.20R WCI  26
NEBRASKA CITY  CLEAR     33  26  75 NW7       30.19S WCI  26
PLATTSMOUTH    CLEAR     32  25  76 NW9       30.19S WCI  24
$$

NEZ044-045-051>053-067-190500-
OMAHA AREA

CITY           SKY/WX    TMP DP  RH WIND       PRES   REMARKS
OMAHA EPPLEY   CLEAR     33  21  61 NW9       30.19R WCI  25
BLAIR          CLEAR     30  23  74 NW3       30.17S
FREMONT        CLEAR     27  23  83 W6        30.20R WCI  21
MILLARD        CLEAR     33  24  69 NW3       30.20R
OFFUTT AFB     CLEAR     31  22  69 NW8       30.18S WCI  23
PLATTSMOUTH    CLEAR     32  25  76 NW9       30.19S WCI  24
WAHOO          FAIR      30  24  79 NW6       30.21R WCI  24
$$



USA.gov is the U.S. government's official web portal to all federal, state and local government web resources and services.